TimePDT,TemperatureF,Dew PointF,Humidity,Sea Level PressureIn,VisibilityMPH,Wind Direction,Wind SpeedMPH,Gust SpeedMPH,PrecipitationIn,Events,Conditions,WindDirDegrees,DateUTC
12:53 AM,60.1,24.1,25,29.94,10.0,NNW,10.4,-,N/A,,Clear,340,2012-11-02 07:53:00
1:53 AM,59.0,24.1,26,29.94,10.0,NW,3.5,-,N/A,,Clear,320,2012-11-02 08:53:00
2:53 AM,57.9,23.0,26,29.94,10.0,WNW,6.9,-,N/A,,Clear,300,2012-11-02 09:53:00
3:53 AM,55.0,28.0,35,29.94,10.0,Calm,Calm,-,N/A,,Clear,0,2012-11-02 10:53:00
4:53 AM,54.0,28.0,37,29.95,10.0,Calm,Calm,-,N/A,,Clear,0,2012-11-02 11:53:00
5:53 AM,55.0,28.0,35,29.97,10.0,NW,5.8,-,N/A,,Clear,310,2012-11-02 12:53:00
6:53 AM,51.1,28.0,41,29.99,10.0,NW,3.5,-,N/A,,Clear,310,2012-11-02 13:53:00
7:53 AM,54.0,28.9,38,30.01,10.0,WNW,5.8,-,N/A,,Clear,300,2012-11-02 14:53:00
8:53 AM,61.0,25.0,25,30.03,10.0,SW,3.5,-,N/A,,Clear,230,2012-11-02 15:53:00
9:53 AM,66.9,24.1,20,30.03,10.0,NNE,4.6,-,N/A,,Clear,30,2012-11-02 16:53:00
10:53 AM,69.1,25.0,19,30.04,10.0,NNE,3.5,-,N/A,,Clear,30,2012-11-02 17:53:00
11:53 AM,72.0,24.1,17,30.02,10.0,Calm,Calm,-,N/A,,Clear,0,2012-11-02 18:53:00
12:53 PM,75.0,23.0,14,29.99,10.0,Calm,Calm,-,N/A,,Clear,0,2012-11-02 19:53:00
1:53 PM,75.0,23.0,14,29.97,10.0,South,3.5,-,N/A,,Clear,170,2012-11-02 20:53:00
2:53 PM,75.9,21.0,13,29.95,10.0,Calm,Calm,-,N/A,,Clear,0,2012-11-02 21:53:00
3:53 PM,75.9,19.9,12,29.95,10.0,ESE,3.5,-,N/A,,Clear,110,2012-11-02 22:53:00
4:53 PM,75.0,21.9,14,29.95,10.0,Calm,Calm,-,N/A,,Clear,0,2012-11-02 23:53:00
5:53 PM,73.9,23.0,15,29.96,10.0,Calm,Calm,-,N/A,,Clear,0,2012-11-03 00:53:00
6:53 PM,68.0,27.0,21,29.98,10.0,Calm,Calm,-,N/A,,Clear,0,2012-11-03 01:53:00
7:53 PM,64.0,28.0,26,30.00,10.0,NNW,4.6,-,N/A,,Clear,330,2012-11-03 02:53:00
8:53 PM,62.1,28.9,29,30.00,10.0,WNW,4.6,-,N/A,,Clear,300,2012-11-03 03:53:00
9:53 PM,60.1,28.9,31,30.01,10.0,WNW,6.9,-,N/A,,Clear,300,2012-11-03 04:53:00
10:53 PM,61.0,26.1,26,30.01,10.0,West,6.9,-,N/A,,Clear,280,2012-11-03 05:53:00
11:53 PM,60.1,24.1,25,30.01,10.0,Calm,Calm,-,N/A,,Clear,0,2012-11-03 06:53:00